Weather History for KIGQ - January, 2014

Change the Weather History Date:

Thursday, January 23, 2014

  Actual Average (KMDW) Record (KMDW)
Temperature  
Mean Temperature 2 °F 25 °F  
Max Temperature 10 °F 31 °F 59 °F (1967)
Min Temperature -5 °F 18 °F -19 °F (1936)
Degree Days  
Heating Degree Days 62 40  
Month to date heating degree days 919  
Since 1 July heating degree days 3170  
Cooling Degree Days 0 0  
Month to date cooling degree days 0  
Year to date cooling degree days 0  
Moisture  
Dew Point -9 °F    
Average Humidity 62    
Maximum Humidity 71    
Minimum Humidity 53    
Precipitation  
Precipitation 0.00 in 0.06 in 0.73 in (1999)
Month to date precipitation 1.61  
Year to date precipitation 1.61  
Sea Level Pressure  
Sea Level Pressure 30.44 in    
Wind  
Wind Speed 11 mph (WNW)    
Max Wind Speed 16 mph    
Max Gust Speed 21 mph    
Visibility 10 miles    
Events Snow    
T = Trace of Precipitation, MM = Missing Value Source: NWS Daily Summary

Daily Weather History Graph

Daily Weather History Graph

Search for Another Location

Airport or City:

Trip Planner

Search our weather history database for the weather conditions in past years. The results will help you decide how hot, cold, wet, or windy it might be!

Date:

Astronomy

Jan. 23, 2014 Rise Set
Actual Time 7:09 AM CST 4:54 PM CST
Civil Twilight 6:39 AM CST 5:24 PM CST
Nautical Twilight 6:05 AM CST 5:58 PM CST
Astronomical Twilight 5:33 AM CST 6:31 PM CST
Moon No Moon Rise 10:38 AM CST (1/23)
Length of Visible Light 10h 45m
Length of Day
9h 45m
Waning Gibbous, 55% of the Moon is Illuminated
Jan 23
Waning Gibbous
Jan 23
Last Quarter
Jan 30
New
Feb 6
First Quarter
Feb 14
Full

Hourly Weather History & Observations

Time (CST) Temp. Windchill Dew Point Humidity Pressure Visibility Wind Dir Wind Speed Gust Speed Precip Events Conditions
12:15 AM 1.4 °F -16.9 °F -11.2 °F 56% 30.17 in 10.0 mi NW 13.8 mph 18.4 mph N/A   Clear
12:35 AM 1.0 °F -14.0 °F -10.7 °F 58% 30.19 in 10.0 mi WNW 9.2 mph - N/A   Clear
12:55 AM 0.5 °F -15.6 °F -10.8 °F 59% 30.19 in 10.0 mi NW 10.4 mph 18.4 mph N/A   Clear
1:15 AM 0.1 °F -15.1 °F -11.2 °F 59% 30.20 in 10.0 mi WNW 9.2 mph - N/A   Clear
1:35 AM -0.6 °F -16.9 °F -11.6 °F 60% 30.22 in 10.0 mi WNW 10.4 mph - N/A   Clear
1:55 AM -0.8 °F -16.2 °F -12.1 °F 59% 30.23 in 10.0 mi WNW 9.2 mph - N/A   Clear
2:15 AM -1.1 °F -16.6 °F -12.6 °F 58% 30.24 in 10.0 mi WNW 9.2 mph - N/A   Clear
2:35 AM -1.3 °F -16.8 °F -13.0 °F 58% 30.25 in 10.0 mi WNW 9.2 mph 18.4 mph N/A   Clear
2:55 AM -1.7 °F -17.3 °F -13.0 °F 59% 30.26 in 10.0 mi WNW 9.2 mph 16.1 mph N/A   Clear
3:15 AM -1.8 °F -17.5 °F -13.0 °F 59% 30.26 in 10.0 mi WNW 9.2 mph - N/A   Clear
3:35 AM -2.2 °F -15.6 °F -13.0 °F 60% 30.26 in 10.0 mi WNW 6.9 mph - N/A   Clear
3:55 AM -2.2 °F -18.0 °F -13.0 °F 60% 30.27 in 10.0 mi WNW 9.2 mph - N/A   Clear
4:15 AM -2.2 °F -18.9 °F -13.0 °F 60% 30.28 in 10.0 mi WNW 10.4 mph 16.1 mph N/A   Clear
4:35 AM -2.2 °F -18.0 °F -13.0 °F 60% 30.29 in 10.0 mi WNW 9.2 mph - N/A   Clear
4:55 AM -2.4 °F -20.1 °F -13.2 °F 60% 30.30 in 10.0 mi WNW 11.5 mph - N/A   Clear
5:15 AM -2.7 °F -20.5 °F -13.2 °F 61% 30.31 in 10.0 mi WNW 11.5 mph 16.1 mph N/A   Clear
5:35 AM -2.7 °F -18.6 °F -13.0 °F 62% 30.32 in 10.0 mi WNW 9.2 mph - N/A   Clear
5:55 AM -2.6 °F -19.4 °F -13.0 °F 61% 30.33 in 10.0 mi WNW 10.4 mph 17.3 mph N/A   Clear
6:15 AM -2.6 °F -19.4 °F -13.0 °F 61% 30.35 in 10.0 mi WNW 10.4 mph - N/A   Clear
6:35 AM -2.4 °F -18.2 °F -12.6 °F 62% 30.36 in 10.0 mi WNW 9.2 mph 17.3 mph N/A   Scattered Clouds
6:55 AM -2.6 °F -18.4 °F -12.5 °F 63% 30.37 in 10.0 mi WNW 9.2 mph - N/A   Scattered Clouds
7:15 AM -2.7 °F -17.5 °F -12.5 °F 63% 30.39 in 10.0 mi West 8.1 mph - N/A   Mostly Cloudy
7:35 AM -2.4 °F -15.8 °F -11.7 °F 64% 30.40 in 10.0 mi WNW 6.9 mph - N/A   Overcast
7:55 AM -2.4 °F -18.2 °F -11.7 °F 64% 30.41 in 10.0 mi WNW 9.2 mph 16.1 mph N/A Snow Light Snow
8:15 AM -1.7 °F -17.3 °F -11.2 °F 64% 30.41 in 10.0 mi NW 9.2 mph - N/A   Scattered Clouds
8:35 AM -0.9 °F -15.3 °F -10.7 °F 63% 30.42 in 7.0 mi WNW 8.1 mph - N/A Snow Light Snow
8:55 AM -0.0 °F -17.1 °F -10.3 °F 62% 30.43 in 10.0 mi WNW 11.5 mph 17.3 mph N/A   Scattered Clouds
9:15 AM 1.0 °F -17.3 °F -9.8 °F 61% 30.44 in 10.0 mi NW 13.8 mph 19.6 mph N/A   Clear
9:35 AM 1.4 °F -14.5 °F -9.4 °F 61% 30.45 in 10.0 mi WNW 10.4 mph 18.4 mph N/A   Clear
9:55 AM 2.7 °F -13.8 °F -8.5 °F 60% 30.46 in 10.0 mi WNW 11.5 mph 20.7 mph N/A   Clear
10:15 AM 3.4 °F -11.1 °F -8.0 °F 59% 30.46 in 10.0 mi WNW 9.2 mph 20.7 mph N/A   Clear
10:35 AM 4.1 °F -9.2 °F -7.2 °F 59% 30.47 in 10.0 mi WNW 8.1 mph - N/A   Clear
10:55 AM 5.0 °F -10.0 °F -6.5 °F 59% 30.48 in 10.0 mi WNW 10.4 mph 17.3 mph N/A   Clear
11:15 AM 5.9 °F -10.5 °F -5.6 °F 59% 30.47 in 10.0 mi WNW 12.7 mph 20.7 mph N/A   Clear
11:35 AM 7.0 °F -6.6 °F -5.1 °F 58% 30.47 in 10.0 mi West 9.2 mph 19.6 mph N/A   Scattered Clouds
11:55 AM 7.3 °F -10.0 °F -4.7 °F 58% 30.47 in 10.0 mi West 15.0 mph 20.7 mph N/A   Mostly Cloudy
12:15 PM 8.1 °F -6.2 °F -4.2 °F 58% 30.48 in 10.0 mi West 10.4 mph 20.7 mph N/A   Scattered Clouds
12:35 PM 8.8 °F -6.8 °F -3.6 °F 57% 30.48 in 10.0 mi West 12.7 mph - N/A   Clear
12:55 PM 9.7 °F -5.0 °F -3.1 °F 56% 30.48 in 10.0 mi West 11.5 mph 17.3 mph N/A   Clear
1:15 PM 9.0 °F -7.3 °F -2.9 °F 59% 30.48 in 10.0 mi West 13.8 mph 20.7 mph N/A   Clear
1:35 PM 9.1 °F -6.4 °F -3.1 °F 58% 30.49 in 10.0 mi West 12.7 mph 18.4 mph N/A   Clear
1:55 PM 9.9 °F -6.7 °F -2.6 °F 57% 30.49 in 10.0 mi West 15.0 mph 18.4 mph N/A   Clear
2:15 PM 10.0 °F -5.2 °F -3.1 °F 55% 30.49 in 10.0 mi West 12.7 mph 17.3 mph N/A   Clear
2:35 PM 10.2 °F -6.3 °F -3.5 °F 54% 30.50 in 10.0 mi West 15.0 mph 19.6 mph N/A   Clear
2:55 PM 10.2 °F -4.3 °F -4.0 °F 53% 30.50 in 10.0 mi West 11.5 mph 20.7 mph N/A   Clear
3:15 PM 9.5 °F -7.8 °F -3.8 °F 55% 30.52 in 10.0 mi West 16.1 mph 20.7 mph N/A   Clear
3:35 PM 9.5 °F -5.9 °F -4.0 °F 54% 30.52 in 10.0 mi WNW 12.7 mph 18.4 mph N/A   Clear
3:55 PM 9.1 °F -4.9 °F -4.0 °F 55% 30.54 in 10.0 mi West 10.4 mph 18.4 mph N/A   Clear
4:15 PM 7.7 °F -8.2 °F -4.0 °F 59% 30.54 in 10.0 mi West 12.7 mph - N/A   Clear
4:35 PM 6.4 °F -10.5 °F -4.5 °F 61% 30.55 in 10.0 mi West 13.8 mph - N/A   Clear
4:55 PM 5.2 °F -10.6 °F -5.1 °F 63% 30.56 in 10.0 mi West 11.5 mph - N/A   Clear
5:15 PM 4.1 °F -12.7 °F -5.6 °F 64% 30.57 in 10.0 mi West 12.7 mph 16.1 mph N/A   Clear
5:35 PM 3.4 °F -13.6 °F -6.0 °F 65% 30.57 in 10.0 mi West 12.7 mph - N/A   Clear
5:55 PM 2.8 °F -13.5 °F -6.7 °F 64% 30.57 in 10.0 mi West 11.5 mph - N/A   Clear
6:15 PM 2.5 °F -13.1 °F -6.7 °F 66% 30.57 in 10.0 mi West 10.4 mph - N/A   Clear
6:35 PM 2.1 °F -13.6 °F -6.7 °F 67% 30.58 in 10.0 mi West 10.4 mph 17.3 mph N/A   Clear
6:55 PM 1.6 °F -13.3 °F -7.2 °F 67% 30.58 in 10.0 mi West 9.2 mph - N/A   Clear
7:15 PM 1.2 °F -14.7 °F -7.6 °F 67% 30.58 in 10.0 mi West 10.4 mph - N/A   Clear
7:35 PM 1.0 °F -14.9 °F -7.6 °F 67% 30.58 in 10.0 mi West 10.4 mph 16.1 mph N/A   Clear
7:55 PM 0.9 °F -16.0 °F -7.8 °F 67% 30.58 in 10.0 mi West 11.5 mph 16.1 mph N/A   Clear
8:15 PM 0.5 °F -13.6 °F -8.1 °F 67% 30.57 in 10.0 mi West 8.1 mph - N/A   Clear
8:35 PM -0.4 °F -16.7 °F -8.5 °F 69% 30.57 in 10.0 mi West 10.4 mph - N/A   Clear
8:55 PM -0.9 °F -17.4 °F -8.9 °F 69% 30.57 in 10.0 mi West 10.4 mph - N/A   Clear
9:15 PM -1.7 °F -18.3 °F -9.4 °F 70% 30.58 in 10.0 mi West 10.4 mph - N/A   Clear
9:55 PM -2.4 °F -20.1 °F -10.3 °F 69% 30.57 in 10.0 mi West 11.5 mph - N/A   Clear
10:15 PM -3.1 °F -20.1 °F -10.3 °F 71% 30.57 in 10.0 mi West 10.4 mph - N/A   Clear
10:35 PM -3.8 °F -19.9 °F -11.2 °F 71% 30.57 in 10.0 mi West 9.2 mph - N/A   Clear
10:55 PM -4.2 °F -19.3 °F -11.4 °F 71% 30.57 in 10.0 mi West 8.1 mph - N/A   Clear
11:15 PM -4.9 °F -20.1 °F -12.1 °F 71% 30.57 in 10.0 mi West 8.1 mph - N/A   Clear
11:35 PM -5.1 °F -21.5 °F -12.8 °F 69% 30.56 in 10.0 mi West 9.2 mph - N/A   Clear
11:55 PM -5.4 °F -20.8 °F -13.0 °F 70% 30.55 in 10.0 mi WSW 8.1 mph - N/A   Clear